STARLINK-34387

Last updated on Thu Jul 03 2025 00:02:06 GMT+0000 (Coordinated Universal Time)

1 64315U 25123AA 25183.58335648 -.00042203 00000+0 -68632-3 0 9993 2 64315 69.9997 120.0589 0003200 268.2388 343.8613 15.52542815 5075
UTC large
Height (km)
Speed (km/s)
/
Latitude / Longitude
Inclination (degrees)
Orbital Period (minutes)
Azimuth
Elevation
Range (km)
Doppler Factor

Next 0 passes for location: London (51.5072 / 0.1276)

Sorry there are no passes over London.